Total_Precipitation_Accumulation
0.23 0.31 0.33 0.31 0.31 0.33 0.35 0.40 0.51 0.59 0.76 0.92 0.92 0.93 1.03 0.93 0.79 0.76 0.65 0.66 0.70 0.66 0.57 0.55 0.56 0.63 0.79 0.92 1.02 1.15 1.41 1.60 1.72 1.77 1.77 1.79 1.78 1.84 1.84 1.74 1.68 1.85 1.85 1.80
0.29 0.33 0.36 0.35 0.34 0.30 0.29 0.27 0.31 0.49 0.73 0.73 0.72 0.77 0.89 0.88 0.92 0.90 0.79 0.63 0.58 0.61 0.60 0.61 0.54 0.54 0.60 0.75 0.90 1.04 1.24 1.40 1.50 1.63 1.75 1.73 1.67 1.70 1.69 1.72 1.73 1.77 1.76 1.78
0.40 0.45 0.52 0.55 0.44 0.42 0.40 0.36 0.39 0.62 0.76 0.62 0.63 0.68 0.70 0.71 0.77 0.82 0.80 0.85 0.82 0.75 0.76 0.67 0.55 0.57 0.59 0.63 0.79 1.01 1.14 1.22 1.33 1.48 1.59 1.62 1.55 1.61 1.69 1.70 1.67 1.60 1.55 1.56
0.43 0.60 0.85 0.64 0.41 0.35 0.35 0.39 0.37 0.48 0.55 0.52 0.55 0.56 0.60 0.67 0.64 0.64 0.57 0.62 0.78 0.85 0.86 0.84 0.74 0.74 0.75 0.75 0.86 1.02 1.14 1.25 1.35 1.48 1.52 1.55 1.55 1.52 1.57 1.56 1.56 1.58 1.47 1.44
0.53 0.66 0.70 0.60 0.49 0.48 0.49 0.51 0.37 0.42 0.47 0.49 0.56 0.60 0.69 0.58 0.50 0.60 0.55 0.61 0.69 0.76 0.85 1.00 1.02 0.97 0.98 1.04 1.10 1.09 1.16 1.29 1.43 1.55 1.60 1.60 1.61 1.57 1.58 1.57 1.53 1.53 1.51 1.53
0.56 0.80 0.89 0.71 0.55 0.59 0.66 0.92 0.61 0.54 0.58 0.60 0.60 0.85 0.93 0.60 0.52 0.72 0.62 0.60 0.67 0.71 0.75 0.92 1.00 0.95 0.98 1.06 1.14 1.14 1.21 1.34 1.47 1.55 1.66 1.64 1.71 1.74 1.71 1.62 1.55 1.53 1.60 1.61
0.62 0.83 0.95 0.67 0.52 0.63 1.10 1.26 0.75 0.66 0.67 0.72 0.74 0.77 0.72 0.59 0.62 0.70 0.62 0.58 0.57 0.65 0.86 0.95 0.98 0.98 1.05 1.08 1.16 1.21 1.35 1.43 1.55 1.64 1.69 1.67 1.73 1.78 1.76 1.71 1.73 1.65 1.55 1.56
0.82 1.07 1.17 0.70 0.62 0.89 1.05 0.80 0.72 0.68 0.63 0.68 0.69 0.62 0.52 0.51 0.55 0.58 0.63 0.63 0.72 0.86 0.98 0.98 1.00 1.12 1.23 1.30 1.28 1.41 1.51 1.49 1.58 1.73 1.59 1.58 1.78 1.85 1.85 1.87 1.85 1.75 1.64 1.56
1.03 1.13 0.98 0.87 0.91 0.99 0.83 0.83 0.74 0.65 0.63 0.58 0.62 0.61 0.55 0.53 0.50 0.55 0.68 0.68 0.78 0.92 0.97 0.99 1.03 1.18 1.42 1.45 1.40 1.44 1.54 1.57 1.59 1.67 1.79 1.86 1.90 1.94 1.90 1.84 1.83 1.79 1.75 1.66
1.17 1.14 1.03 1.01 1.00 0.98 0.90 0.87 0.78 0.67 0.68 0.63 0.67 0.73 0.66 0.61 0.62 0.58 0.62 0.68 0.74 0.90 0.95 1.07 1.16 1.31 1.57 1.61 1.57 1.59 1.65 1.72 1.72 1.72 1.77 1.95 2.11 2.10 2.02 1.87 1.87 1.89 1.81 1.80
1.40 1.33 1.15 1.02 0.88 0.83 0.77 0.73 0.71 0.70 0.71 0.72 0.76 0.79 0.74 0.77 0.78 0.71 0.68 0.70 0.79 0.97 1.11 1.17 1.22 1.30 1.46 1.61 1.76 1.83 1.84 1.83 1.85 1.88 1.92 2.00 2.00 1.96 1.94 1.87 1.77 1.81 1.82 1.82
1.60 1.30 1.15 1.07 0.88 0.86 0.76 0.70 0.70 0.69 0.69 0.77 0.76 0.75 0.73 0.76 0.81 0.78 0.83 0.93 0.94 0.98 1.12 1.21 1.26 1.35 1.47 1.68 1.96 2.17 2.14 2.05 2.03 2.02 2.04 2.01 2.01 1.84 1.68 1.60 1.52 1.44 1.47 1.48
1.23 1.08 1.05 0.95 0.86 0.92 0.88 0.81 0.80 0.79 0.74 0.78 0.83 0.77 0.74 0.79 0.83 0.81 0.81 1.00 1.12 1.09 1.12 1.20 1.23 1.36 1.49 1.64 1.92 2.19 2.27 2.23 2.15 2.07 2.00 1.94 1.99 2.00 1.88 1.72 1.66 1.52 1.38 1.30
1.07 1.14 1.10 0.99 0.90 0.88 0.92 0.88 0.82 0.85 0.81 0.76 0.85 0.94 0.93 0.82 0.83 0.87 0.86 0.95 1.03 1.05 1.09 1.10 1.09 1.15 1.35 1.64 1.96 2.13 2.16 2.12 2.07 2.03 1.96 1.91 1.96 2.03 1.93 1.88 1.87 1.74 1.54 1.43
1.09 1.26 1.20 0.99 1.00 0.96 0.87 0.85 0.91 1.02 0.84 0.79 0.88 1.07 1.07 0.91 0.89 0.97 0.96 0.93 0.97 1.03 1.09 1.09 1.13 1.16 1.30 1.59 1.93 2.09 2.07 2.00 1.97 1.95 1.98 2.01 2.03 2.07 2.05 2.04 2.03 1.95 1.73 1.55
1.14 1.21 1.17 1.02 1.01 1.00 0.87 0.89 1.00 1.04 0.92 0.85 0.89 1.08 1.19 1.05 0.94 0.99 1.01 1.03 1.08 1.09 1.13 1.13 1.13 1.17 1.29 1.52 1.80 1.97 2.07 2.05 1.97 1.85 1.82 1.91 2.01 1.97 1.97 2.04 2.03 1.96 1.86 1.64
1.32 1.33 1.21 1.08 1.03 1.04 1.03 1.01 1.07 1.11 1.13 1.11 1.02 1.08 1.19 1.11 1.10 1.12 1.11 1.15 1.23 1.23 1.21 1.24 1.27 1.31 1.39 1.56 1.77 1.78 1.81 1.75 1.68 1.57 1.54 1.59 1.72 1.79 1.83 1.94 1.92 1.80 1.69 1.57
1.45 1.40 1.27 1.14 1.06 1.07 1.09 1.10 1.13 1.20 1.28 1.23 1.16 1.22 1.34 1.37 1.42 1.40 1.27 1.21 1.24 1.29 1.34 1.34 1.34 1.40 1.49 1.56 1.74 1.74 1.72 1.68 1.56 1.50 1.53 1.61 1.70 1.75 1.83 1.89 1.84 1.75 1.59 1.44
1.42 1.32 1.23 1.16 1.14 1.20 1.27 1.26 1.22 1.22 1.27 1.25 1.26 1.31 1.41 1.54 1.55 1.51 1.43 1.40 1.43 1.50 1.52 1.50 1.53 1.36 1.43 1.57 1.76 1.92 1.89 1.80 1.77 1.74 1.65 1.71 1.70 1.75 1.84 1.79 1.72 1.71 1.62 1.46
1.38 1.31 1.27 1.30 1.27 1.30 1.33 1.30 1.26 1.16 1.12 1.18 1.26 1.30 1.39 1.53 1.59 1.59 1.55 1.52 1.57 1.67 1.66 1.59 1.42 1.35 1.38 1.55 1.77 1.83 1.96 1.93 1.80 1.68 1.61 1.59 1.62 1.71 1.76 1.67 1.56 1.54 1.49 1.39
1.51 1.46 1.47 1.44 1.43 1.40 1.35 1.31 1.23 1.16 1.13 1.16 1.29 1.37 1.43 1.55 1.67 1.71 1.75 1.74 1.66 1.58 1.46 1.43 1.32 1.34 1.35 1.46 1.59 1.63 1.77 1.85 1.84 1.73 1.60 1.49 1.46 1.48 1.46 1.42 1.37 1.34 1.34 1.33
1.58 1.46 1.40 1.31 1.27 1.26 1.21 1.17 1.11 1.07 1.08 1.13 1.22 1.30 1.39 1.47 1.58 1.59 1.59 1.73 1.70 1.62 1.38 1.28 1.28 1.37 1.38 1.35 1.32 1.47 1.60 1.62 1.60 1.51 1.38 1.28 1.26 1.26 1.25 1.19 1.15 1.10 1.08 1.08
1.49 1.30 1.22 1.18 1.13 1.09 1.01 0.95 0.90 0.94 1.00 1.05 1.16 1.31 1.46 1.46 1.49 1.56 1.53 1.39 1.35 1.34 1.24 1.22 1.22 1.24 1.19 1.15 1.22 1.31 1.37 1.38 1.37 1.36 1.32 1.23 1.17 1.18 1.13 1.02 0.96 0.91 0.87 0.86
1.31 1.13 1.05 1.01 0.97 0.92 0.90 0.85 0.78 0.80 0.85 0.93 1.05 1.19 1.38 1.47 1.41 1.28 1.32 1.28 1.13 1.02 0.99 1.02 1.00 1.01 1.01 0.98 1.06 1.13 1.17 1.15 1.13 1.11 1.06 1.00 0.96 0.98 0.93 0.85 0.79 0.76 0.76 0.74
1.17 1.08 0.97 0.91 0.90 0.89 0.84 0.78 0.74 0.74 0.78 0.90 0.98 1.04 1.20 1.41 1.47 1.24 1.03 0.92 0.88 0.80 0.77 0.76 0.74 0.76 0.73 0.74 0.78 0.86 0.95 0.99 1.00 0.96 0.87 0.84 0.83 0.85 0.80 0.74 0.71 0.70 0.69 0.69
1.05 1.03 1.02 0.94 0.89 0.90 0.88 0.85 0.87 0.89 0.97 1.14 1.16 1.07 1.12 1.20 1.19 1.06 0.91 0.76 0.72 0.74 0.66 0.61 0.58 0.55 0.50 0.48 0.53 0.64 0.69 0.74 0.82 0.82 0.77 0.76 0.76 0.75 0.75 0.74 0.70 0.67 0.66 0.66
0.99 0.96 0.98 0.95 0.87 0.87 0.93 0.96 1.00 1.06 1.19 1.42 1.48 1.27 1.16 1.14 1.10 1.02 0.95 0.85 0.79 0.79 0.71 0.61 0.56 0.52 0.47 0.47 0.48 0.55 0.59 0.62 0.68 0.73 0.72 0.70 0.70 0.73 0.72 0.70 0.72 0.67 0.62 0.61